Time,TemperatureF,DewpointF,PressureIn,WindDirection,WindDirectionDegrees,WindSpeedMPH,WindSpeedGustMPH,Humidity,HourlyPrecipIn,Conditions,Clouds,dailyrainin,SoftwareType,DateUTC
2013-01-17 00:02:00,16.0,13.0,-100.00,ESE,110,2.0,3.0,85,-99.99,,,-99.99,,2013-01-17 07:02:00,
2013-01-17 00:12:00,16.0,13.0,-100.00,ESE,110,2.0,3.0,85,-99.99,,,-99.99,,2013-01-17 07:12:00,
2013-01-17 00:22:00,16.0,13.0,-100.00,ESE,110,2.0,3.0,85,-99.99,,,-99.99,,2013-01-17 07:22:00,
2013-01-17 00:43:00,15.0,13.0,-100.00,SE,140,0.0,2.0,89,-99.99,,,-99.99,,2013-01-17 07:43:00,
2013-01-17 00:53:00,15.0,13.0,-100.00,South,170,0.0,1.0,90,-99.99,,,-99.99,,2013-01-17 07:53:00,
2013-01-17 01:02:00,15.0,12.0,-100.00,WSW,255,0.0,1.0,90,-99.99,,,-99.99,,2013-01-17 08:02:00,
2013-01-17 01:12:00,14.0,12.0,-100.00,SSE,160,0.0,1.0,91,-99.99,,,-99.99,,2013-01-17 08:12:00,
2013-01-17 01:22:00,15.0,13.0,-100.00,South,190,0.0,1.0,91,-99.99,,,-99.99,,2013-01-17 08:22:00,
2013-01-17 01:32:00,15.0,13.0,-100.00,South,170,0.0,2.0,91,-99.99,,,-99.99,,2013-01-17 08:32:00,
2013-01-17 01:43:00,14.0,12.0,-100.00,West,265,1.0,4.0,91,-99.99,,,-99.99,,2013-01-17 08:43:00,
2013-01-17 01:52:00,14.0,12.0,-100.00,SE,140,2.0,2.0,91,-99.99,,,-99.99,,2013-01-17 08:52:00,
2013-01-17 02:02:00,14.0,12.0,-100.00,North,350,0.0,2.0,91,-99.99,,,-99.99,,2013-01-17 09:02:00,
2013-01-17 02:12:00,14.0,12.0,-100.00,NW,305,0.0,2.0,90,-99.99,,,-99.99,,2013-01-17 09:12:00,
2013-01-17 02:22:00,15.0,12.0,-100.00,SE,145,1.0,2.0,90,-99.99,,,-99.99,,2013-01-17 09:22:00,
2013-01-17 02:32:00,14.0,12.0,-100.00,SE,140,1.0,2.0,90,-99.99,,,-99.99,,2013-01-17 09:32:00,
2013-01-17 02:42:00,13.0,11.0,-100.00,West,265,0.0,2.0,89,-99.99,,,-99.99,,2013-01-17 09:42:00,
2013-01-17 02:52:00,14.0,12.0,-100.00,SE,140,0.0,2.0,90,-99.99,,,-99.99,,2013-01-17 09:52:00,
2013-01-17 03:02:00,13.0,11.0,-100.00,SSE,160,0.0,0.0,90,-99.99,,,-99.99,,2013-01-17 10:02:00,
2013-01-17 03:12:00,13.0,11.0,-100.00,SSE,150,0.0,1.0,90,-99.99,,,-99.99,,2013-01-17 10:12:00,
2013-01-17 03:22:00,13.0,11.0,-100.00,SE,145,0.0,2.0,91,-99.99,,,-99.99,,2013-01-17 10:22:00,
2013-01-17 03:32:00,13.0,11.0,-100.00,South,175,0.0,1.0,91,-99.99,,,-99.99,,2013-01-17 10:32:00,
2013-01-17 03:42:00,13.0,11.0,-100.00,South,175,0.0,1.0,91,-99.99,,,-99.99,,2013-01-17 10:42:00,
2013-01-17 03:52:00,12.0,10.0,-100.00,SSW,210,0.0,1.0,91,-99.99,,,-99.99,,2013-01-17 10:52:00,
2013-01-17 04:02:00,13.0,11.0,-100.00,SSE,155,0.0,1.0,92,-99.99,,,-99.99,,2013-01-17 11:02:00,
2013-01-17 04:12:00,14.0,12.0,-100.00,SW,220,0.0,2.0,92,-99.99,,,-99.99,,2013-01-17 11:12:00,
2013-01-17 04:22:00,13.0,11.0,-100.00,SE,140,0.0,2.0,91,-99.99,,,-99.99,,2013-01-17 11:22:00,
2013-01-17 04:33:00,13.0,11.0,-100.00,SSE,155,0.0,1.0,91,-99.99,,,-99.99,,2013-01-17 11:33:00,
2013-01-17 04:42:00,13.0,11.0,-100.00,SE,135,1.0,2.0,91,-99.99,,,-99.99,,2013-01-17 11:42:00,
2013-01-17 04:52:00,13.0,11.0,-100.00,SW,230,0.0,0.0,91,-99.99,,,-99.99,,2013-01-17 11:52:00,
2013-01-17 05:02:00,13.0,11.0,-100.00,SW,225,0.0,0.0,91,-99.99,,,-99.99,,2013-01-17 12:02:00,
2013-01-17 05:12:00,13.0,11.0,-100.00,SSW,205,1.0,1.0,91,-99.99,,,-99.99,,2013-01-17 12:12:00,
2013-01-17 05:22:00,12.0,10.0,-100.00,WNW,290,1.0,4.0,91,-99.99,,,-99.99,,2013-01-17 12:22:00,
2013-01-17 05:32:00,12.0,10.0,-100.00,SE,140,0.0,2.0,91,-99.99,,,-99.99,,2013-01-17 12:32:00,
2013-01-17 05:42:00,13.0,11.0,-100.00,SE,135,1.0,3.0,91,-99.99,,,-99.99,,2013-01-17 12:42:00,
2013-01-17 05:52:00,14.0,12.0,-100.00,SE,140,0.0,3.0,90,-99.99,,,-99.99,,2013-01-17 12:52:00,
2013-01-17 06:03:00,13.0,11.0,-100.00,SW,220,0.0,1.0,89,-99.99,,,-99.99,,2013-01-17 13:03:00,
2013-01-17 06:12:00,13.0,10.0,-100.00,SSE,165,0.0,1.0,89,-99.99,,,-99.99,,2013-01-17 13:12:00,
2013-01-17 06:22:00,11.0,9.0,-100.00,South,190,0.0,1.0,89,-99.99,,,-99.99,,2013-01-17 13:22:00,
2013-01-17 06:33:00,12.0,10.0,-100.00,West,265,1.0,2.0,90,-99.99,,,-99.99,,2013-01-17 13:33:00,
2013-01-17 06:42:00,13.0,11.0,-100.00,SSW,195,0.0,1.0,90,-99.99,,,-99.99,,2013-01-17 13:42:00,
2013-01-17 06:52:00,13.0,11.0,-100.00,South,175,0.0,2.0,90,-99.99,,,-99.99,,2013-01-17 13:52:00,
2013-01-17 07:03:00,13.0,11.0,-100.00,SSE,150,1.0,1.0,89,-99.99,,,-99.99,,2013-01-17 14:03:00,
2013-01-17 07:12:00,13.0,11.0,-100.00,SSE,155,0.0,1.0,89,-99.99,,,-99.99,,2013-01-17 14:12:00,
2013-01-17 07:23:00,14.0,11.0,-100.00,South,175,1.0,2.0,89,-99.99,,,-99.99,,2013-01-17 14:23:00,
2013-01-17 07:33:00,15.0,12.0,-100.00,South,170,1.0,4.0,86,-99.99,,,-99.99,,2013-01-17 14:33:00,
2013-01-17 07:42:00,15.0,12.0,-100.00,SE,135,0.0,2.0,86,-99.99,,,-99.99,,2013-01-17 14:42:00,
2013-01-17 07:53:00,15.0,11.0,-100.00,WNW,290,0.0,1.0,85,-99.99,,,-99.99,,2013-01-17 14:53:00,
2013-01-17 08:03:00,14.0,11.0,-100.00,WSW,245,0.0,1.0,85,-99.99,,,-99.99,,2013-01-17 15:03:00,
2013-01-17 08:12:00,15.0,12.0,-100.00,South,175,1.0,2.0,85,-99.99,,,-99.99,,2013-01-17 15:12:00,
2013-01-17 08:22:00,15.0,11.0,-100.00,SSE,165,0.0,1.0,84,-99.99,,,-99.99,,2013-01-17 15:22:00,
2013-01-17 08:33:00,14.0,10.0,-100.00,WSW,240,3.0,4.0,84,-99.99,,,-99.99,,2013-01-17 15:33:00,
2013-01-17 08:43:00,15.0,11.0,-100.00,SW,235,2.0,6.0,86,-99.99,,,-99.99,,2013-01-17 15:43:00,
2013-01-17 08:52:00,17.0,13.0,-100.00,SSW,200,1.0,4.0,86,-99.99,,,-99.99,,2013-01-17 15:52:00,
2013-01-17 09:02:00,18.0,14.0,-100.00,ESE,110,1.0,2.0,83,-99.99,,,-99.99,,2013-01-17 16:02:00,
2013-01-17 09:12:00,18.0,14.0,-100.00,SSE,165,0.0,1.0,82,-99.99,,,-99.99,,2013-01-17 16:12:00,
2013-01-17 09:22:00,19.0,13.0,-100.00,SE,145,1.0,1.0,80,-99.99,,,-99.99,,2013-01-17 16:22:00,
2013-01-17 09:33:00,19.0,13.0,-100.00,SE,140,1.0,2.0,76,-99.99,,,-99.99,,2013-01-17 16:33:00,
2013-01-17 09:43:00,20.0,13.0,-100.00,SE,125,2.0,3.0,74,-99.99,,,-99.99,,2013-01-17 16:43:00,
2013-01-17 09:52:00,20.0,13.0,-100.00,SE,125,2.0,3.0,74,-99.99,,,-99.99,,2013-01-17 16:52:00,
2013-01-17 10:03:00,20.0,13.0,-100.00,SE,135,2.0,3.0,71,-99.99,,,-99.99,,2013-01-17 17:03:00,
2013-01-17 10:12:00,21.0,13.0,-100.00,SE,125,1.0,3.0,70,-99.99,,,-99.99,,2013-01-17 17:12:00,
2013-01-17 10:22:00,21.0,13.0,-100.00,SSE,150,2.0,3.0,70,-99.99,,,-99.99,,2013-01-17 17:22:00,
2013-01-17 10:33:00,22.0,14.0,-100.00,SE,145,1.0,3.0,70,-99.99,,,-99.99,,2013-01-17 17:33:00,
2013-01-17 10:43:00,24.0,15.0,-100.00,SW,235,2.0,6.0,69,-99.99,,,-99.99,,2013-01-17 17:43:00,
2013-01-17 10:53:00,27.0,17.0,-100.00,SSW,195,4.0,10.0,64,-99.99,,,-99.99,,2013-01-17 17:53:00,
2013-01-17 11:03:00,30.0,17.0,-100.00,WSW,240,1.0,7.0,59,-99.99,,,-99.99,,2013-01-17 18:03:00,
2013-01-17 11:12:00,31.0,17.0,-100.00,ENE,60,3.0,5.0,56,-99.99,,,-99.99,,2013-01-17 18:12:00,
2013-01-17 11:22:00,30.0,16.0,-100.00,NE,55,4.0,6.0,55,-99.99,,,-99.99,,2013-01-17 18:22:00,
2013-01-17 11:33:00,31.0,17.0,-100.00,ENE,65,1.0,4.0,55,-99.99,,,-99.99,,2013-01-17 18:33:00,
2013-01-17 11:43:00,33.0,18.0,-100.00,ESE,115,0.0,2.0,54,-99.99,,,-99.99,,2013-01-17 18:43:00,
2013-01-17 11:53:00,36.0,19.0,-100.00,NE,45,3.0,4.0,49,-99.99,,,-99.99,,2013-01-17 18:53:00,
2013-01-17 12:03:00,38.0,19.0,-100.00,NE,55,3.0,5.0,45,-99.99,,,-99.99,,2013-01-17 19:03:00,
2013-01-17 12:12:00,39.0,18.0,-100.00,NE,55,4.0,5.0,43,-99.99,,,-99.99,,2013-01-17 19:12:00,
2013-01-17 12:22:00,40.0,18.0,-100.00,NE,55,3.0,5.0,41,-99.99,,,-99.99,,2013-01-17 19:22:00,
2013-01-17 12:33:00,42.0,19.0,-100.00,ENE,60,1.0,4.0,38,-99.99,,,-99.99,,2013-01-17 19:33:00,
2013-01-17 12:42:00,42.0,19.0,-100.00,ENE,65,2.0,3.0,37,-99.99,,,-99.99,,2013-01-17 19:42:00,
2013-01-17 12:53:00,42.0,17.0,-100.00,North,10,3.0,5.0,35,-99.99,,,-99.99,,2013-01-17 19:53:00,
2013-01-17 13:02:00,42.0,15.0,-100.00,NW,320,4.0,10.0,33,-99.99,,,-99.99,,2013-01-17 20:02:00,
2013-01-17 13:12:00,41.0,13.0,-100.00,NW,325,4.0,10.0,31,-99.99,,,-99.99,,2013-01-17 20:12:00,
2013-01-17 13:23:00,41.0,13.0,-100.00,NW,310,4.0,12.0,30,-99.99,,,-99.99,,2013-01-17 20:23:00,
2013-01-17 13:33:00,41.0,12.0,-100.00,WNW,290,4.0,8.0,30,-99.99,,,-99.99,,2013-01-17 20:33:00,
2013-01-17 13:43:00,41.0,12.0,-100.00,NNW,330,3.0,7.0,29,-99.99,,,-99.99,,2013-01-17 20:43:00,
2013-01-17 13:53:00,42.0,12.0,-100.00,WNW,290,4.0,6.0,29,-99.99,,,-99.99,,2013-01-17 20:53:00,
2013-01-17 14:03:00,42.0,13.0,-100.00,WSW,240,2.0,6.0,29,-99.99,,,-99.99,,2013-01-17 21:03:00,
2013-01-17 14:12:00,42.0,12.0,-100.00,WNW,295,3.0,7.0,28,-99.99,,,-99.99,,2013-01-17 21:12:00,
2013-01-17 14:23:00,42.0,12.0,-100.00,SSW,205,1.0,8.0,29,-99.99,,,-99.99,,2013-01-17 21:23:00,
2013-01-17 14:33:00,42.0,12.0,-100.00,WNW,285,5.0,8.0,28,-99.99,,,-99.99,,2013-01-17 21:33:00,
2013-01-17 14:42:00,42.0,12.0,-100.00,WSW,240,1.0,8.0,29,-99.99,,,-99.99,,2013-01-17 21:42:00,
2013-01-17 14:52:00,42.0,12.0,-100.00,SW,225,2.0,10.0,29,-99.99,,,-99.99,,2013-01-17 21:52:00,
2013-01-17 15:03:00,41.0,12.0,-100.00,NW,315,1.0,7.0,29,-99.99,,,-99.99,,2013-01-17 22:03:00,
2013-01-17 15:12:00,41.0,12.0,-100.00,WNW,290,4.0,9.0,29,-99.99,,,-99.99,,2013-01-17 22:12:00,
2013-01-17 15:22:00,41.0,12.0,-100.00,WNW,290,4.0,9.0,29,-99.99,,,-99.99,,2013-01-17 22:22:00,
2013-01-17 15:33:00,40.0,11.0,-100.00,West,275,1.0,9.0,30,-99.99,,,-99.99,,2013-01-17 22:33:00,
2013-01-17 15:42:00,39.0,11.0,-100.00,West,280,4.0,9.0,30,-99.99,,,-99.99,,2013-01-17 22:42:00,
2013-01-17 15:52:00,39.0,11.0,-100.00,WSW,240,6.0,9.0,30,-99.99,,,-99.99,,2013-01-17 22:52:00,
2013-01-17 16:02:00,38.0,11.0,-100.00,West,260,4.0,12.0,31,-99.99,,,-99.99,,2013-01-17 23:02:00,
2013-01-17 16:12:00,38.0,11.0,-100.00,SW,220,2.0,12.0,32,-99.99,,,-99.99,,2013-01-17 23:12:00,
2013-01-17 16:22:00,36.0,10.0,-100.00,SW,235,4.0,10.0,33,-99.99,,,-99.99,,2013-01-17 23:22:00,
2013-01-17 16:32:00,35.0,10.0,-100.00,SW,215,4.0,10.0,34,-99.99,,,-99.99,,2013-01-17 23:32:00,
2013-01-17 16:42:00,34.0,10.0,-100.00,SSW,200,2.0,6.0,36,-99.99,,,-99.99,,2013-01-17 23:42:00,
2013-01-17 16:52:00,32.0,10.0,-100.00,SE,145,2.0,4.0,38,-99.99,,,-99.99,,2013-01-17 23:52:00,
2013-01-17 17:02:00,30.0,10.0,-100.00,SE,130,1.0,5.0,40,-99.99,,,-99.99,,2013-01-18 00:02:00,
2013-01-17 17:12:00,29.0,10.0,-100.00,West,265,1.0,4.0,43,-99.99,,,-99.99,,2013-01-18 00:12:00,
2013-01-17 17:23:00,28.0,10.0,-100.00,ESE,115,2.0,6.0,45,-99.99,,,-99.99,,2013-01-18 00:23:00,
2013-01-17 17:32:00,29.0,10.0,-100.00,SSW,205,2.0,6.0,45,-99.99,,,-99.99,,2013-01-18 00:32:00,
2013-01-17 17:42:00,28.0,10.0,-100.00,SW,215,2.0,6.0,46,-99.99,,,-99.99,,2013-01-18 00:42:00,
2013-01-17 17:52:00,28.0,10.0,-100.00,ESE,120,2.0,6.0,47,-99.99,,,-99.99,,2013-01-18 00:52:00,
2013-01-17 18:02:00,29.0,11.0,-100.00,SSE,160,2.0,7.0,45,-99.99,,,-99.99,,2013-01-18 01:02:00,
2013-01-17 18:12:00,29.0,11.0,-100.00,SE,145,1.0,6.0,45,-99.99,,,-99.99,,2013-01-18 01:12:00,
2013-01-17 18:22:00,29.0,10.0,-100.00,SSE,165,2.0,6.0,45,-99.99,,,-99.99,,2013-01-18 01:22:00,
2013-01-17 18:33:00,28.0,10.0,-100.00,ESE,120,2.0,6.0,47,-99.99,,,-99.99,,2013-01-18 01:33:00,
2013-01-17 18:42:00,27.0,10.0,-100.00,South,175,2.0,5.0,48,-99.99,,,-99.99,,2013-01-18 01:42:00,
2013-01-17 18:52:00,27.0,10.0,-100.00,WSW,255,1.0,6.0,47,-99.99,,,-99.99,,2013-01-18 01:52:00,
2013-01-17 19:02:00,28.0,10.0,-100.00,SE,145,3.0,6.0,46,-99.99,,,-99.99,,2013-01-18 02:02:00,
2013-01-17 19:12:00,28.0,10.0,-100.00,South,185,3.0,6.0,46,-99.99,,,-99.99,,2013-01-18 02:12:00,
2013-01-17 19:22:00,28.0,10.0,-100.00,South,185,3.0,6.0,46,-99.99,,,-99.99,,2013-01-18 02:22:00,
2013-01-17 19:32:00,28.0,9.0,-100.00,ESE,110,2.0,6.0,45,-99.99,,,-99.99,,2013-01-18 02:32:00,
2013-01-17 19:42:00,28.0,9.0,-100.00,South,175,2.0,7.0,44,-99.99,,,-99.99,,2013-01-18 02:42:00,
2013-01-17 19:52:00,28.0,9.0,-100.00,SSE,155,2.0,7.0,43,-99.99,,,-99.99,,2013-01-18 02:52:00,
2013-01-17 20:02:00,28.0,9.0,-100.00,SSE,155,2.0,7.0,43,-99.99,,,-99.99,,2013-01-18 03:02:00,
2013-01-17 20:12:00,28.0,8.0,-100.00,SE,135,2.0,5.0,43,-99.99,,,-99.99,,2013-01-18 03:12:00,
2013-01-17 20:22:00,29.0,9.0,-100.00,NW,325,1.0,9.0,41,-99.99,,,-99.99,,2013-01-18 03:22:00,
2013-01-17 20:33:00,29.0,9.0,-100.00,West,260,1.0,7.0,41,-99.99,,,-99.99,,2013-01-18 03:33:00,
2013-01-17 20:42:00,30.0,9.0,-100.00,SSW,210,3.0,11.0,40,-99.99,,,-99.99,,2013-01-18 03:42:00,
2013-01-17 20:53:00,33.0,10.0,-100.00,West,280,5.0,17.0,38,-99.99,,,-99.99,,2013-01-18 03:53:00,
2013-01-17 21:02:00,33.0,10.0,-100.00,West,280,8.0,19.0,37,-99.99,,,-99.99,,2013-01-18 04:02:00,
2013-01-17 21:12:00,34.0,10.0,-100.00,NNW,335,7.0,24.0,35,-99.99,,,-99.99,,2013-01-18 04:12:00,
2013-01-17 21:22:00,34.0,9.0,-100.00,WNW,295,6.0,19.0,34,-99.99,,,-99.99,,2013-01-18 04:22:00,
2013-01-17 21:32:00,33.0,8.0,-100.00,WSW,250,6.0,14.0,34,-99.99,,,-99.99,,2013-01-18 04:32:00,
2013-01-17 21:42:00,32.0,7.0,-100.00,West,265,2.0,9.0,35,-99.99,,,-99.99,,2013-01-18 04:42:00,
2013-01-17 21:52:00,30.0,7.0,-100.00,SSE,160,1.0,7.0,36,-99.99,,,-99.99,,2013-01-18 04:52:00,
2013-01-17 22:03:00,29.0,6.0,-100.00,SSW,200,3.0,10.0,38,-99.99,,,-99.99,,2013-01-18 05:03:00,
2013-01-17 22:12:00,29.0,7.0,-100.00,SE,135,4.0,11.0,38,-99.99,,,-99.99,,2013-01-18 05:12:00,
2013-01-17 22:22:00,28.0,6.0,-100.00,South,180,3.0,6.0,39,-99.99,,,-99.99,,2013-01-18 05:22:00,
2013-01-17 22:33:00,28.0,7.0,-100.00,SSW,200,4.0,7.0,39,-99.99,,,-99.99,,2013-01-18 05:33:00,
2013-01-17 22:42:00,30.0,8.0,-100.00,SSW,210,6.0,12.0,38,-99.99,,,-99.99,,2013-01-18 05:42:00,
2013-01-17 22:52:00,29.0,7.0,-100.00,South,190,3.0,7.0,39,-99.99,,,-99.99,,2013-01-18 05:52:00,
2013-01-17 23:02:00,31.0,8.0,-100.00,WNW,300,8.0,21.0,37,-99.99,,,-99.99,,2013-01-18 06:02:00,
2013-01-17 23:12:00,32.0,8.0,-100.00,SW,225,7.0,23.0,36,-99.99,,,-99.99,,2013-01-18 06:12:00,
2013-01-17 23:22:00,33.0,9.0,-100.00,NW,315,9.0,21.0,35,-99.99,,,-99.99,,2013-01-18 06:22:00,
2013-01-17 23:32:00,34.0,8.0,-100.00,SW,220,10.0,24.0,33,-99.99,,,-99.99,,2013-01-18 06:32:00,
2013-01-17 23:43:00,34.0,8.0,-100.00,SW,215,6.0,24.0,33,-99.99,,,-99.99,,2013-01-18 06:43:00,
2013-01-17 23:52:00,34.0,8.0,-100.00,WSW,255,8.0,22.0,32,-99.99,,,-99.99,,2013-01-18 06:52:00,